[Iaude] MPEC J279: 2024 JB15 [a=0.96,e=0.24,i=12.8,H=22.4]
    mpec at cfa.harvard.edu 
    mpec at cfa.harvard.edu
       
    Sun May 12 09:08:54 EDT 2024
    
    
  
M.P.E.C. 2024-J279                                 Issued 2024 May 12, 13:06 UT
     The Minor Planet Electronic Circulars contain information on unusual
         minor planets, routine data on comets and natural satellites,
         and occasional editorial announcements.  They are published
    on behalf of Division F of the International Astronomical Union by the
          Minor Planet Center, Smithsonian Astrophysical Observatory,
                          Cambridge, MA 02138, U.S.A.
			  
             Prepared using the Tamkin Foundation Computer Network
                              MPC at CFA.HARVARD.EDU
            URL https://www.minorplanetcenter.net/    ISSN 1523-6714
                                   2024 JB15                                    
Observations:
     K24J15B*1C2024 05 10.37417816 20 05.752-24 07 58.08         19.62GVEJ279G96
     K24J15B 1C2024 05 10.37904616 20 04.628-24 07 38.89         19.44GVEJ279G96
     K24J15B 1C2024 05 10.38391216 20 03.487-24 07 19.92               VEJ279G96
     K24J15B 1C2024 05 10.38877716 20 02.353-24 07 01.38         19.44GVEJ279G96
     K24J15B mC2024 05 10.40548816 19 58.470-24 05 55.90         19.61GVEJ279I52
     K24J15B mC2024 05 10.40855116 19 57.740-24 05 44.10         19.57GVEJ279I52
     K24J15B KC2024 05 10.47446116 19 46.114-24 00 30.67         19.6 GVEJ279474
     K24J15B KC2024 05 10.47810416 19 45.262-24 00 16.88         19.8 GVEJ279474
     K24J15B KC2024 05 10.47992716 19 44.846-24 00 09.90         19.8 GVEJ279474
     K24J15B KC2024 05 10.48357116 19 44.028-23 59 56.08         19.7 GVEJ279474
     K24J15B KB2024 05 11.00674216 17 50.44 -23 26 51.3          19.4 GXEJ279I93
     K24J15B  C2024 05 11.00751 16 17 50.01 -23 26 48.8          19.6 RXEJ279511
     K24J15B  C2024 05 11.00986 16 17 49.46 -23 26 39.6          19.7 RXEJ279511
     K24J15B  C2024 05 11.01220 16 17 49.00 -23 26 30.7          19.7 RXEJ279511
     K24J15B  C2024 05 11.01455 16 17 48.34 -23 26 21.0          19.7 RXEJ279511
     K24J15B  C2024 05 11.01690 16 17 47.85 -23 26 12.4          19.8 RXEJ279511
     K24J15B KB2024 05 11.01761516 17 47.92 -23 26 09.0          19.5 GXEJ279I93
     K24J15B 0B2024 05 11.02005 16 17 46.534-23 25 14.63         18.5 VZEJ279M49
     K24J15B 0B2024 05 11.02311 16 17 45.823-23 25 02.64         19.3 VZEJ279M49
     K24J15B 0B2024 05 11.02616 16 17 45.062-23 24 50.83         19.5 VZEJ279M49
     K24J15B KB2024 05 11.02829916 17 45.45 -23 25 26.6          19.2 GXEJ279I93
     K24J15B pC2024 05 11.90920516 14 34.11 -22 26 41.3          19.5 GVEJ279L01
     K24J15B KC2024 05 11.91172716 14 33.50 -22 26 31.1          19.3 GVEJ279L01
     K24J15B KC2024 05 11.91424916 14 32.92 -22 26 21.8          19.3 GVEJ279L01
     K24J15B KC2024 05 11.91742716 14 32.19 -22 26 08.6          19.4 GVEJ279L01
     K24J15B pC2024 05 11.92038716 14 31.54 -22 25 56.5          19.4 GVEJ279L01
     K24J15B KC2024 05 11.96310 16 14 21.63 -22 23 04.5          19.2 GXEJ279K83
     K24J15B KC2024 05 11.97287 16 14 19.33 -22 22 24.5          19.5 GXEJ279K83
     K24J15B KC2024 05 11.98228 16 14 17.12 -22 21 46.1          20.0 GXEJ279K83
     K24J15B  C2024 05 12.24289616 13 20.968-22 03 56.81         19.55GVEJ279I52
     K24J15B  C2024 05 12.24545416 13 20.366-22 03 46.44               VEJ279I52
     K24J15B  C2024 05 12.25058216 13 19.182-22 03 26.57         20.94GVEJ279I52
     K24J15B KC2024 05 12.27286016 13 12.70 -22 02 00.9          20.2 GVEJ279H21
     K24J15B KC2024 05 12.27570416 13 12.04 -22 01 49.0          20.3 GVEJ279H21
     K24J15B KC2024 05 12.27855016 13 11.35 -22 01 37.7          20.1 GVEJ279H21
     K24J15B KC2024 05 12.28139716 13 10.69 -22 01 26.0          19.7 GVEJ279H21
     K24J15B KC2024 05 12.28709016 13 09.33 -22 01 02.6          19.7 GVEJ279H21
     K24J15B KC2024 05 12.39677116 12 44.161-21 53 28.79         19.53GVEJ279I52
     K24J15B KC2024 05 12.39961816 12 43.495-21 53 17.02         19.76GVEJ279I52
     K24J15B KC2024 05 12.40246716 12 42.829-21 53 04.96               VEJ279I52
     K24J15B KC2024 05 12.40532416 12 42.138-21 52 53.36               VEJ279I52
Observer details:
474 Mount John Observatory, Lake Tekapo.  Observers A. C. Gilmore, P. M.
    Kilmartin.  Measurer P. M. Kilmartin.  1.0-m f/7.7 Reflector + CCD.
511 Haute Provence.  Observers W. Thuillot, M. Saillenfest.  Measurers M.
    Saillenfest, S. Bouquillon, F. Taris, T. Carlucci, C. Barache.  1.20-m f/6
    reflector + CCD.
G96 Mt. Lemmon Survey.  Observer J. K. Hogan.  Measurers T. Beuden, V. F.
    Carvajal, D. Fay, J. B. Fazekas, D. C. Fuls, A. R. Gibbs, A. D. Grauer, H.
    Groeller, J. K. Hogan, R. A. Kowalski, S. M. Larson, G. J. Leonard, D.
    Rankin, R. L. Seaman, F. C. Shelly, K. W. Wierzchos.  1.5-m reflector +
    10K CCD.
H21 Astronomical Research Observatory, Westfield.  Observer R. Holmes.
    Measurers T. Linder, R. Holmes, L. Horn.  0.81-m f/4.0 astrograph + CCD.
I52 Steward Observatory, Mt. Lemmon Station.  Observers H. Groeller, T.
    Beuden.  Measurers T. Beuden, V. F. Carvajal, D. Fay, J. B. Fazekas, D. C.
    Fuls, A. R. Gibbs, A. D. Grauer, H. Groeller, J. K. Hogan, R. A. Kowalski,
    S. M. Larson, G. J. Leonard, D. Rankin, R. L. Seaman, F. C. Shelly, K. W.
    Wierzchos.  1.0-m prime focus + CCD.
I93 St Pardon de Conques.  Observer F. Losse.  0.40-m f/3.7 reflector + CMO.
K83 Beppe Forti Astronomical Observatory, Montelupo.  Observers M. Tombelli,
    G. Interrante, T. Bitossi, R. Ciani, A. Mazzanti.  Measurers M. Tombelli,
    F. Bernardi, A. Squilloni, F. Cheli.  0.40-m f/8 Ritchey-Chretien + CCD.
L01 Visnjan Observatory, Tican.  Observers K. Korlevic, G. Kervina.  Measurer
    K. Korlevic.  1.0-m f/2.9 reflector + CCD.
M49 IAS Remote Observatory, Hakos.  Observers D. Husar, M. Junius, T. Daiber,
    T. Steinbach, P. Ditz, R. Hellot, L. Demetz, A. Karakali.  Measurer D.
    Husar.  0.25-m f/4.5 reflector + CMO.
Orbital elements:
2024 JB15                                                Earth MOID = 0.1587 AU
Epoch 2024 Mar. 31.0 TT = JDT 2460400.5                 Veres                   
M 142.36335              (2000.0)            P               Q                  
n   1.05328320     Peri.  175.08494     +0.64932948     -0.73903363             
a   0.9566930      Node   234.29429     +0.69000406     +0.67171622             
e   0.2398069      Incl.   12.76687     +0.31978997     +0.05125052             
P   0.94           H   22.47          G   0.15           U   7                  
Residuals in seconds of arc
240510 G96  0.1+  0.2-    240511 511  0.3-  0.2-    240511 K83  0.2+  0.6+
240510 G96  0.2+  0.1+    240511 511  0.5+  0.8-    240512 I52  0.2-  0.4+
240510 G96  0.1+  0.2+    240511 I93  0.2+  0.2-    240512 I52  0.2-  0.5+
240510 G96  0.0   0.2-    240511 M49  0.2+  0.1+    240512 I52  0.2+  0.3-
240510 I52  0.0   0.1+    240511 M49  0.4+  0.1-    240512 H21  0.2-  0.1-
240510 I52  0.3-  0.0     240511 M49  0.1-  0.3-    240512 H21  0.0   0.2+
240510 474  0.2+  0.1+    240511 I93  0.4+  0.1+    240512 H21  0.1-  0.2-
240510 474  0.1-  0.0     240511 L01  0.3-  0.3+    240512 H21  0.1+  0.1-
240510 474  0.1-  0.0     240511 L01  0.6-  0.5+    240512 H21  0.1+  0.0
240510 474  0.1+  0.2-    240511 L01  0.5-  0.4-    240512 I52  0.2-  0.0
240511 I93  0.2+  0.2+    240511 L01  0.3-  0.1+    240512 I52  0.0   0.0
240511 511  0.2+  0.2-    240511 L01  0.3+  0.3+    240512 I52  0.2+  0.3+
240511 511  0.1+  0.3-    240511 K83  0.0   0.3-    240512 I52  0.1+  0.0
240511 511  1.3+  0.6-    240511 K83  0.1+  0.3+
Ephemeris:
2024 JB15                a,e,i = 0.96, 0.24, 13                  q = 0.7273
Date    TT    R. A. (2000) Decl.     Delta      r    Elong.  Phase     V
2024 04 12    17 16 00.8 -41 34 31   0.2908  1.1719   119.1    48.3    21.9
...
2024 04 27    16 58 44.2 -35 14 06   0.2258  1.1842   138.1    34.6    21.0
...
2024 05 05    16 38 02.6 -29 22 08   0.1974  1.1861   151.7    23.8    20.4
...
2024 05 11    16 17 51.5 -23 26 37   0.1817  1.1854   163.7    13.9    19.9
2024 05 12    16 14 13.0 -22 19 54   0.1796  1.1851   165.7    12.1    19.8
2024 05 13    16 10 31.2 -21 11 16   0.1778  1.1848   167.8    10.4    19.8
...
2024 05 19    15 47 45.0 -13 49 09   0.1708  1.1817   174.0     5.1    19.4
...
2024 05 27    15 18 34.0 -03 42 28   0.1728  1.1747   157.6    19.2    20.0
...
2024 06 11    14 38 28.9 +10 46 27   0.2038  1.1531   128.4    43.6    21.0
M. P. C. Staff               (C) Copyright 2024 MPC           M.P.E.C. 2024-J279
    
    
More information about the Iaude
mailing list